Powrót do katalogu

OMNI-M1

AktywnyMilitariaMEO
NORAD 26857·PAYLOAD·🇳🇮 Nicaragua

Wystrzelony Jun 19, 2001 z Cape Canaveral Space Force Station

Loading…

Następne Przeloty (najbliższe 24 godziny)

TLE

ŚwieżeSource: Space-Track

Epoka: Sep 14, 2026, 15:52 UTC

1 26857U 01026A   26257.66163825 -.00000002  00000-0  00000-0 0  9999
2 26857  44.8087 224.6432 0014289  68.2205 291.9390  3.92403071209082

Śledź OMNI-M1 w czasie rzeczywistym z AllMySat

Download on the App Store